THOR AGENA D R/B, 1245

Orbit data source: Space-Track

THOR AGENA D R/B, 1245 is space debris in LEO originally from a launch on Tue, 09 Mar 1965 UTC launched from the Air Force Western Test Range (AFWTR). Debris objects in space refer to the collection of defunct objects orbiting the Earth. Examples of debris include non-operational satellites, rocket bodies, and fragments generated from explosions, collisions, or faulty payload assembly.

Loading next visibility...
Identifier
1245, 1965-016J
Orbit
LEO
Country
Flag of USUS
Related business
Manufacturer
LMSC
Mission
Spacecraft
Bus & Motor
AGENA D, Unknown motor
Mass
600 kg wet, 600 kg dry
Launch date (UTC)
1965-03-09 (61 years ago)
Launch vehicle
Unknown
Launch site
Air Force Western Test Range (AFWTR)
Object type
Payload
Rocket body
Debris
Shape & HBR
Unknown
Radar Cross Section
Large (>1 m²)

Expand to show TLE details & history
Last TLE update: 8 hours ago

TLE from 8 hours ago
0 THOR AGENA D R/B
1 01245U 65016J   26035.32205723  .00000060  00000-0  79954-4 0  9994
2 01245  70.0782  28.7669 0023636 229.1918 130.7139 13.97639823101735
Epoch: 2026-02-04T07:43Z
TLE epoch observation values (Epoch: 2026-02-04T07:43:45.744Z)
Latitude
-0.00007°
Longitude
138.33597°
Altitude
915.548 km
Speed
7.389 km/s
True Right ascension
01h 55m 04s
True Declination
0° 00' 00"
Sunlit
Object was in daylight at epoch
Visualization orbit readout
Latitude
Unknown
Longitude
Unknown
Altitude
Unknown
Speed
Unknown
Apparent Right ascension
Unknown
Apparent Declination
Unknown
Sunlit
N/A
Visualization observer readout
Local Sidereal Time
17:30:58
Azimuth
Unknown
Elevation
Unknown
Doppler factor
Unknown
Orbital elements
Apogee altitude
917.216 km
Perigee altitude
882.81 km
Semi-major axis
7,278.15 km
Eccentricity
0.00236
Inclination
70.0782°
RAAN
28.7669°
Arg. of periapsis
229.1918°
True anomaly
130.9188°
Mean anomaly
130.7139°
Eccentric anomaly
130.81639°
Mean motion
3.49552 °/min
Orbital period
102.99 mins
BSTAR
0.000079954
Loading maneuver chart data...
Computing Atmospheric mass density...
Loading historical data...
Loading historical data...
Loading historical data...
Loading historical data...
Loading historical data...
Loading historical data...
Loading historical data...

Documentation

Showing up to 5 results
|